Location: *
(29.1167°S, 130.0000°E)
Time: 22:21:10
(UTC+00:00)

GPS 2-04 Rocket1 - Pass Details

Date: 21 July 2019
Orbit: 420 x 553 km, 35.6° (Epoch: 24 August)

Event Time Altitude Azimuth Distance (km) Brightness Sun altitude
Rises 09:29:21 0° 251° (WSW) 2,712 7.3 -10.4°
Reaches altitude 10° 09:31:45 10° 241° (WSW) 1,830 6.1 -10.9°
Maximum altitude 09:35:38 34° 175° (S) 928 3.8 -11.7°
Enters shadow 09:38:15 18° 119° (ESE) 1,408 4.3 -12.3°
